Список аэропортов
Фактическая погода:

23 января, 01:00
Температура: -9°C (-16.9*)
Ветер: сев.-западный 6 м/с
Давление: *753 мм
облачно
630 м
слаб. снег
Время (МСК)Темп. СВетерВлажностьДавлениеОблачностьОсадки
21:00-10З, 7 м/с80%1005 гПаоблачно
22:00-10СЗ, 7 м/с81%1005 гПаоблачно
23:00-10СЗ, 7 м/с81%1005 гПаоблачно
23 января
00:00-9СЗ, 6 м/с81%1006 гПаоблачно
01:00-9СЗ, 6 м/с80%1006 гПаоблачно
02:00-10СЗ, 6 м/с80%1007 гПаоблачно
03:00-10СЗ, 6 м/с80%1008 гПаоблачно
04:00-10СЗ, 6 м/с80%1008 гПаоблачно
05:00-10СЗ, 6 м/с81%1009 гПаоблачно
06:00-10СЗ, 6 м/с81%1009 гПаоблачно
07:00-10СЗ, 6 м/с81%1009 гПаоблачно
08:00-10СЗ, 6 м/с82%1010 гПаоблачно
09:00-9СЗ, 6 м/с82%1010 гПаоблачно
10:00-9З, 6 м/с81%1011 гПас прояснениями
11:00-8З, 6 м/с80%1011 гПаоблачно
12:00-8З, 7 м/с82%1011 гПаоблачно
13:00-8З, 6 м/с82%1011 гПаоблачно
14:00-7З, 6 м/с83%1011 гПаоблачно
15:00-8З, 5 м/с81%1011 гПаоблачно
16:00-8З, 5 м/с83%1010 гПамалооблачно
17:00-9З, 4 м/с84%1011 гПамалооблачно
18:00-9З, 4 м/с85%1010 гПамалооблачно
19:00-9ЮЗ, 4 м/с84%1010 гПаоблачно
20:00-9ЮЗ, 4 м/с84%1010 гПаоблачно
21:00-8ЮЗ, 4 м/с85%1009 гПаоблачно
22:00-8ЮЗ, 3 м/с87%1008 гПаоблачносл. снег
23:00-8Ю, 3 м/с89%1007 гПаоблачноснег
24 января
00:00-7Ю, 4 м/с90%1006 гПаоблачносл. снег
01:00-7Ю, 5 м/с91%1005 гПаоблачносл. снег
02:00-6Ю, 5 м/с91%1004 гПаоблачносл. снег
03:00-6Ю, 4 м/с92%1003 гПаоблачносл. снег
04:00-5Ю, 4 м/с93%1001 гПаоблачноснег
05:00-4Ю, 4 м/с94%1001 гПаоблачноснег
06:00-3Ю, 3 м/с94%1000 гПаоблачноснег
07:00-1ЮЗ, 4 м/с93%999 гПаоблачноснег
08:000ЮЗ, 5 м/с90%999 гПаоблачноснег
09:00+1ЮЗ, 5 м/с88%998 гПаоблачнодождь
10:00+1З, 6 м/с87%998 гПаоблачнодождь
11:00+1З, 6 м/с86%998 гПаоблачносл. дождь
12:00+1З, 6 м/с87%998 гПаоблачнодождь
13:00+1З, 5 м/с86%998 гПаоблачнодождь
14:00+1З, 5 м/с86%998 гПаоблачнодождь
15:00+1З, 5 м/с86%998 гПаоблачносл. дождь
16:00+1З, 4 м/с87%998 гПаоблачнодождь
17:000С, 3 м/с92%999 гПаоблачноснег
18:00-2СВ, 6 м/с88%1000 гПаоблачноснег
19:00-4СВ, 6 м/с85%1001 гПаоблачносл. снег
20:00-4СВ, 6 м/с84%1002 гПаоблачносл. снег
21:00-4СВ, 6 м/с82%1003 гПаоблачноснег